When you browse on this site, cookies collect data to enhance your experience and personalize the content and advertising you see.
Visit our Privacy Policy to learn more. By continuing to use the site, you agree to this use of cookies and data.
  • In Portugal
  • List of Countries
  • For 7 days
  • Water Temperature
  • Satellite Maps
  • Weather Map
  • Weather Widgets
  • user-avatar
    Login

    Hourly Weather Mihalinovo

    Today, 20 February, Wednesday

    Time Temperature Precipitation Wind Pressure Humidity
    00:00 -2°C° 0 mm 6 mps 737 mmHg 94%
    01:00 -2°C° 0 mm 6 mps 737 mmHg 94%
    02:00 -2°C° 0 mm 6 mps 736 mmHg 95%
    03:00 -1°C° 0 mm 5 mps 736 mmHg 94%
    04:00 -1°C° 0 mm 5 mps 736 mmHg 94%
    05:00 -1°C° 0 mm 4 mps 735 mmHg 94%
    06:00 -2°C° 0 mm 4 mps 735 mmHg 94%
    07:00 -2°C° 0 mm 4 mps 735 mmHg 94%
    08:00 -2°C° 0 mm 4 mps 735 mmHg 94%
    09:00 -2°C° 0.1 mm 5 mps 735 mmHg 96%
    10:00 -1°C° 0.1 mm 5 mps 735 mmHg 97%
    11:00 -2°C° 0.1 mm 6 mps 735 mmHg 98%
    12:00 -2°C° 0 mm 6 mps 735 mmHg 98%
    13:00 -1°C° 0 mm 6 mps 734 mmHg 98%
    14:00 -1°C° 0 mm 6 mps 734 mmHg 98%
    15:00 -1°C° 0.1 mm 6 mps 734 mmHg 95%
    16:00 -1°C° 0.1 mm 7 mps 734 mmHg 93%
    17:00 -1°C° 0.1 mm 7 mps 734 mmHg 91%
    18:00 -1°C° 0.3 mm 7 mps 734 mmHg 91%
    19:00 -1°C° 0.3 mm 7 mps 733 mmHg 91%
    20:00 -2°C° 0.3 mm 7 mps 733 mmHg 91%
    21:00 -3°C° 0.1 mm 7 mps 734 mmHg 87%
    22:00 -6°C° 0.1 mm 7 mps 734 mmHg 83%
    23:00 -8°C° 0.1 mm 6 mps 734 mmHg 79%

    Tomorrow, 21 February, Thursday

    Time Temperature Precipitation Wind Pressure Humidity
    00:00 -8°C° 0 mm 7 mps 735 mmHg 79%
    01:00 -8°C° 0 mm 7 mps 735 mmHg 79%
    02:00 -9°C° 0 mm 7 mps 736 mmHg 79%
    03:00 -9°C° 0 mm 7 mps 736 mmHg 79%
    04:00 -9°C° 0 mm 7 mps 736 mmHg 78%
    05:00 -11°C° 0 mm 7 mps 737 mmHg 78%
    06:00 -11°C° 0 mm 7 mps 737 mmHg 78%
    07:00 -11°C° 0 mm 7 mps 737 mmHg 77%
    08:00 -11°C° 0 mm 7 mps 738 mmHg 77%
    09:00 -9°C° 0 mm 7 mps 738 mmHg 76%
    10:00 -10°C° 0 mm 8 mps 739 mmHg 75%
    11:00 -8°C° 0 mm 8 mps 739 mmHg 74%
    12:00 -8°C° 0 mm 8 mps 740 mmHg 74%
    13:00 -8°C° 0 mm 8 mps 741 mmHg 74%
    14:00 -8°C° 0 mm 7 mps 741 mmHg 74%
    15:00 -8°C° 0 mm 7 mps 742 mmHg 75%
    16:00 -8°C° 0 mm 6 mps 742 mmHg 76%
    17:00 -8°C° 0 mm 5 mps 742 mmHg 77%
    18:00 -8°C° 0 mm 5 mps 743 mmHg 79%
    19:00 -10°C° 0 mm 5 mps 743 mmHg 80%
    20:00 -11°C° 0 mm 5 mps 744 mmHg 82%
    21:00 -10°C° 0 mm 4 mps 744 mmHg 82%
    22:00 -11°C° 0 mm 4 mps 744 mmHg 82%
    23:00 -12°C° 0 mm 4 mps 745 mmHg 82%

    Day after tomorrow, 22 February, Friday

    Time Temperature Precipitation Wind Pressure Humidity
    00:00 -12°C° 0 mm 4 mps 745 mmHg 82%
    01:00 -12°C° 0 mm 4 mps 746 mmHg 83%
    02:00 -14°C° 0 mm 4 mps 746 mmHg 83%
    03:00 -14°C° 0 mm 4 mps 747 mmHg 83%
    04:00 -14°C° 0 mm 4 mps 747 mmHg 83%
    05:00 -14°C° 0 mm 5 mps 747 mmHg 82%
    06:00 -15°C° 0 mm 5 mps 748 mmHg 81%
    07:00 -15°C° 0 mm 5 mps 749 mmHg 80%
    08:00 -16°C° 0 mm 6 mps 749 mmHg 78%
    09:00 -15°C° 0 mm 6 mps 749 mmHg 75%
    10:00 -14°C° 0 mm 7 mps 750 mmHg 72%
    11:00 -13°C° 0 mm 8 mps 750 mmHg 69%
    12:00 -13°C° 0 mm 8 mps 750 mmHg 69%
    13:00 -12°C° 0 mm 8 mps 751 mmHg 69%
    14:00 -12°C° 0 mm 8 mps 751 mmHg 69%
    15:00 -12°C° 0 mm 8 mps 751 mmHg 70%
    16:00 -12°C° 0 mm 7 mps 752 mmHg 71%
    17:00 -12°C° 0 mm 6 mps 752 mmHg 72%
    18:00 -12°C° 0.1 mm 6 mps 752 mmHg 75%
    19:00 -12°C° 0.1 mm 6 mps 753 mmHg 78%
    20:00 -12°C° 0.1 mm 6 mps 753 mmHg 81%
    21:00 -13°C° 0 mm 5 mps 753 mmHg 80%
    22:00 -13°C° 0 mm 5 mps 754 mmHg 79%
    23:00 -14°C° 0 mm 5 mps 754 mmHg 78%

    23 February, Saturday

    Time Temperature Precipitation Wind Pressure Humidity
    00:00 -14°C° 0 mm 5 mps 755 mmHg 79%
    01:00 -15°C° 0 mm 5 mps 755 mmHg 81%
    02:00 -15°C° 0 mm 5 mps 756 mmHg 82%
    03:00 -15°C° 0 mm 4 mps 756 mmHg 83%
    04:00 -15°C° 0 mm 4 mps 756 mmHg 84%
    05:00 -15°C° 0 mm 4 mps 756 mmHg 86%
    06:00 -15°C° 0 mm 4 mps 757 mmHg 86%
    07:00 -15°C° 0 mm 4 mps 757 mmHg 87%
    08:00 -15°C° 0 mm 4 mps 757 mmHg 87%
    09:00 -15°C° 0 mm 4 mps 757 mmHg 85%
    10:00 -14°C° 0 mm 5 mps 758 mmHg 82%
    11:00 -13°C° 0 mm 5 mps 758 mmHg 80%
    12:00 -11°C° 0 mm 4 mps 758 mmHg 78%
    13:00 -11°C° 0 mm 4 mps 758 mmHg 75%
    14:00 -10°C° 0 mm 4 mps 757 mmHg 73%
    15:00 -10°C° 0 mm 4 mps 757 mmHg 75%
    16:00 -9°C° 0 mm 3 mps 757 mmHg 77%
    17:00 -10°C° 0 mm 3 mps 757 mmHg 79%
    18:00 -10°C° 0 mm 3 mps 757 mmHg 80%
    19:00 -10°C° 0 mm 3 mps 757 mmHg 81%
    20:00 -9°C° 0 mm 2 mps 757 mmHg 82%
    21:00 -9°C° 0 mm 2 mps 757 mmHg 83%
    22:00 -8°C° 0 mm 2 mps 757 mmHg 84%
    23:00 -8°C° 0 mm 2 mps 756 mmHg 85%

    24 February, Sunday

    Time Temperature Precipitation Wind Pressure Humidity
    00:00 -8°C° 0 mm 2 mps 756 mmHg 87%
    01:00 -8°C° 0 mm 2 mps 756 mmHg 88%
    02:00 -7°C° 0 mm 1 mps 756 mmHg 90%
    03:00 -8°C° 0.1 mm 2 mps 755 mmHg 92%
    04:00 -8°C° 0.1 mm 2 mps 755 mmHg 93%
    05:00 -7°C° 0.1 mm 2 mps 755 mmHg 95%
    06:00 -7°C° 0.2 mm 2 mps 755 mmHg 95%
    07:00 -7°C° 0.2 mm 2 mps 755 mmHg 95%
    08:00 -7°C° 0.2 mm 2 mps 755 mmHg 95%
    09:00 -4°C° 0 mm 1 mps 755 mmHg 94%
    10:00 -3°C° 0 mm 1 mps 755 mmHg 92%
    11:00 -3°C° 0 mm 1 mps 755 mmHg 90%
    12:00 -2°C° 0 mm 1 mps 755 mmHg 90%
    13:00 -1°C° 0 mm 1 mps 755 mmHg 89%
    14:00 -1°C° 0 mm 1 mps 755 mmHg 89%
    15:00 -1°C° 0 mm 1 mps 755 mmHg 90%
    16:00 -1°C° 0 mm 1 mps 755 mmHg 92%
    17:00 -1°C° 0 mm 1 mps 755 mmHg 94%
    18:00 -1°C° 0 mm 1 mps 755 mmHg 95%
    19:00 -1°C° 0 mm 1 mps 755 mmHg 95%
    20:00 -2°C° 0 mm 1 mps 755 mmHg 95%
    21:00 -2°C° 0 mm 1 mps 755 mmHg 96%
    22:00 -1°C° 0 mm 1 mps 755 mmHg 96%
    23:00 -1°C° 0 mm 1 mps 755 mmHg 96%

    25 February, Monday

    Time Temperature Precipitation Wind Pressure Humidity
    00:00 -1°C° 0 mm 1 mps 755 mmHg 96%
    01:00 -1°C° 0 mm 1 mps 755 mmHg 96%
    02:00 -1°C° 0 mm 1 mps 754 mmHg 96%
    03:00 -1°C° 0 mm 1 mps 754 mmHg 96%
    04:00 -1°C° 0 mm 1 mps 754 mmHg 96%
    05:00 -1°C° 0 mm 1 mps 753 mmHg 96%
    06:00 -3°C° 0 mm 2 mps 753 mmHg 96%
    07:00 -3°C° 0 mm 2 mps 752 mmHg 96%
    08:00 -3°C° 0 mm 2 mps 752 mmHg 96%
    09:00 -4°C° 0 mm 3 mps 752 mmHg 95%
    10:00 -2°C° 0 mm 3 mps 751 mmHg 94%
    11:00 -2°C° 0 mm 3 mps 751 mmHg 94%
    12:00 -1°C° 0.1 mm 3 mps 751 mmHg 95%
    13:00 -1°C° 0.1 mm 3 mps 750 mmHg 96%
    14:00 -1°C° 0.1 mm 3 mps 750 mmHg 97%
    15:00 -2°C° 0 mm 4 mps 749 mmHg 94%
    16:00 -2°C° 0 mm 4 mps 749 mmHg 92%
    17:00 -2°C° 0 mm 5 mps 749 mmHg 89%
    18:00 -2°C° 0 mm 5 mps 749 mmHg 88%
    19:00 -2°C° 0 mm 5 mps 749 mmHg 87%
    20:00 -2°C° 0 mm 5 mps 749 mmHg 87%
    21:00 -3°C° 0 mm 4 mps 749 mmHg 87%
    22:00 -3°C° 0 mm 4 mps 749 mmHg 88%
    23:00 -3°C° 0 mm 4 mps 749 mmHg 88%
    Show more